Location: downtown San Diego
(32.7310°N, 117.1990°W)
Time: 18:07:36
(UTC-08:00)

Cosmos 2227 Rocket - Pass Details

Date: 12 July 2018
Orbit: 839 x 845 km, 71.0° (Epoch: 15 December)

Event Time Altitude Azimuth Distance (km) Brightness Sun altitude
Rises 22:59:57 0° 351° (N) 3,404 6.4 -29.0°
Reaches altitude 10° 23:02:43 10° 2° (N) 2,465 5.3 -29.3°
Enters shadow 23:07:09 30° 53° (NE) 1,471 3.4 -29.7°
